• In Czech Republic
  • List of Countries
  • For 7 days
  • Water Temperature
  • Satellite Maps
  • Weather Map
  • Weather Widgets
  • user-avatar
    Login

    Hourly Weather Quebec

    Today, 23 February, Friday

    Time Temperature Precipitation Wind Pressure Humidity
    00:00 -22°C° 0 mm 4 mps 705 mmHg 94%
    01:00 -22°C° 0 mm 4 mps 705 mmHg 94%
    02:00 -20°C° 0 mm 4 mps 705 mmHg 93%
    03:00 -19°C° 0 mm 4 mps 704 mmHg 93%
    04:00 -18°C° 0 mm 4 mps 704 mmHg 92%
    05:00 -19°C° 0 mm 5 mps 703 mmHg 92%
    06:00 -19°C° 0 mm 5 mps 703 mmHg 92%
    07:00 -18°C° 0 mm 6 mps 702 mmHg 91%
    08:00 -17°C° 0 mm 6 mps 702 mmHg 90%
    09:00 -17°C° 0 mm 7 mps 701 mmHg 89%
    10:00 -16°C° 0 mm 8 mps 701 mmHg 88%
    11:00 -15°C° 0 mm 8 mps 700 mmHg 86%
    12:00 -13°C° 0 mm 8 mps 699 mmHg 84%
    13:00 -12°C° 0 mm 8 mps 698 mmHg 82%
    14:00 -12°C° 0.2 mm 7 mps 697 mmHg 85%
    15:00 -12°C° 0.2 mm 7 mps 696 mmHg 87%
    16:00 -11°C° 0.2 mm 6 mps 695 mmHg 90%
    17:00 -12°C° 0.5 mm 6 mps 694 mmHg 91%
    18:00 -12°C° 0.5 mm 5 mps 692 mmHg 93%
    19:00 -12°C° 0.5 mm 5 mps 691 mmHg 94%
    20:00 -12°C° 0.5 mm 4 mps 690 mmHg 95%
    21:00 -12°C° 0.5 mm 4 mps 689 mmHg 95%
    22:00 -12°C° 0.5 mm 3 mps 688 mmHg 95%
    23:00 -12°C° 0.2 mm 3 mps 688 mmHg 95%

    Tomorrow, 24 February, Saturday

    Time Temperature Precipitation Wind Pressure Humidity
    00:00 -13°C° 0.2 mm 3 mps 687 mmHg 95%
    01:00 -13°C° 0.2 mm 3 mps 687 mmHg 95%
    02:00 -14°C° 0.1 mm 3 mps 688 mmHg 94%
    03:00 -15°C° 0.1 mm 4 mps 688 mmHg 94%
    04:00 -16°C° 0.1 mm 4 mps 688 mmHg 93%
    05:00 -18°C° 0 mm 4 mps 689 mmHg 93%
    06:00 -20°C° 0 mm 4 mps 689 mmHg 94%
    07:00 -23°C° 0 mm 4 mps 690 mmHg 95%
    08:00 -24°C° 0 mm 4 mps 691 mmHg 93%
    09:00 -25°C° 0 mm 5 mps 692 mmHg 91%
    10:00 -25°C° 0 mm 5 mps 693 mmHg 89%
    11:00 -25°C° 0 mm 5 mps 693 mmHg 88%
    12:00 -25°C° 0 mm 5 mps 694 mmHg 87%
    13:00 -25°C° 0 mm 5 mps 695 mmHg 85%
    14:00 -25°C° 0 mm 5 mps 696 mmHg 86%
    15:00 -24°C° 0 mm 4 mps 696 mmHg 87%
    16:00 -25°C° 0 mm 4 mps 697 mmHg 88%
    17:00 -26°C° 0 mm 3 mps 697 mmHg 91%
    18:00 -29°C° 0 mm 3 mps 698 mmHg 94%
    19:00 -29°C° 0 mm 2 mps 698 mmHg 97%
    20:00 -29°C° 0 mm 2 mps 699 mmHg 96%
    21:00 -29°C° 0 mm 2 mps 699 mmHg 96%
    22:00 -30°C° 0 mm 2 mps 699 mmHg 95%
    23:00 -29°C° 0 mm 2 mps 699 mmHg 93%

    Day after tomorrow, 25 February, Sunday

    Time Temperature Precipitation Wind Pressure Humidity
    00:00 -29°C° 0 mm 2 mps 700 mmHg 91%
    01:00 -29°C° 0 mm 2 mps 700 mmHg 89%
    02:00 -29°C° 0 mm 2 mps 700 mmHg 87%
    03:00 -30°C° 0 mm 3 mps 700 mmHg 86%
    04:00 -30°C° 0 mm 3 mps 700 mmHg 84%
    05:00 -30°C° 0 mm 3 mps 699 mmHg 83%
    06:00 -30°C° 0 mm 4 mps 699 mmHg 81%
    07:00 -30°C° 0 mm 4 mps 698 mmHg 80%
    08:00 -28°C° 0 mm 5 mps 698 mmHg 77%
    09:00 -25°C° 0 mm 5 mps 697 mmHg 74%
    10:00 -22°C° 0 mm 6 mps 697 mmHg 71%
    11:00 -21°C° 0 mm 7 mps 695 mmHg 71%
    12:00 -19°C° 0 mm 7 mps 694 mmHg 71%
    13:00 -17°C° 0 mm 8 mps 693 mmHg 71%
    14:00 -17°C° 0.1 mm 9 mps 691 mmHg 73%
    15:00 -18°C° 0.1 mm 10 mps 690 mmHg 75%
    16:00 -18°C° 0.1 mm 10 mps 688 mmHg 77%
    17:00 -18°C° 1.2 mm 11 mps 687 mmHg 80%
    18:00 -17°C° 1.2 mm 11 mps 686 mmHg 84%
    19:00 -16°C° 1.2 mm 11 mps 685 mmHg 88%
    20:00 -14°C° 0.4 mm 11 mps 684 mmHg 88%
    21:00 -14°C° 0.4 mm 11 mps 683 mmHg 87%
    22:00 -13°C° 0.4 mm 11 mps 682 mmHg 87%
    23:00 -10°C° 0.7 mm 10 mps 681 mmHg 88%

    26 February, Monday

    Time Temperature Precipitation Wind Pressure Humidity
    00:00 -9°C° 0.7 mm 10 mps 681 mmHg 89%
    01:00 -8°C° 0.7 mm 9 mps 680 mmHg 89%
    02:00 -8°C° 0.4 mm 9 mps 681 mmHg 88%
    03:00 -9°C° 0.4 mm 9 mps 681 mmHg 87%
    04:00 -9°C° 0.4 mm 9 mps 681 mmHg 87%
    05:00 -10°C° 0.2 mm 8 mps 681 mmHg 87%
    06:00 -9°C° 0.2 mm 7 mps 682 mmHg 88%
    07:00 -11°C° 0.2 mm 7 mps 682 mmHg 88%
    08:00 -11°C° 0.2 mm 7 mps 682 mmHg 87%
    09:00 -11°C° 0.2 mm 8 mps 683 mmHg 85%
    10:00 -12°C° 0.2 mm 8 mps 683 mmHg 84%
    11:00 -12°C° 0.2 mm 8 mps 684 mmHg 84%
    12:00 -12°C° 0.2 mm 8 mps 684 mmHg 84%
    13:00 -12°C° 0.2 mm 8 mps 684 mmHg 84%
    14:00 -12°C° 0.2 mm 7 mps 685 mmHg 84%
    15:00 -13°C° 0.2 mm 7 mps 685 mmHg 85%
    16:00 -14°C° 0.2 mm 7 mps 686 mmHg 86%
    17:00 -14°C° 0.1 mm 6 mps 687 mmHg 87%
    18:00 -15°C° 0.1 mm 6 mps 687 mmHg 89%
    19:00 -14°C° 0.1 mm 5 mps 688 mmHg 91%
    20:00 -15°C° 0.1 mm 5 mps 689 mmHg 91%
    21:00 -15°C° 0.1 mm 5 mps 689 mmHg 91%
    22:00 -15°C° 0.1 mm 5 mps 689 mmHg 91%
    23:00 -17°C° 0.1 mm 5 mps 690 mmHg 91%

    27 February, Tuesday

    Time Temperature Precipitation Wind Pressure Humidity
    00:00 -17°C° 0.1 mm 5 mps 690 mmHg 91%
    01:00 -17°C° 0.1 mm 5 mps 691 mmHg 91%
    02:00 -18°C° 0 mm 5 mps 691 mmHg 91%
    03:00 -18°C° 0 mm 5 mps 692 mmHg 91%
    04:00 -18°C° 0 mm 4 mps 692 mmHg 92%
    05:00 -19°C° 0 mm 4 mps 693 mmHg 93%
    06:00 -19°C° 0 mm 3 mps 693 mmHg 94%
    07:00 -21°C° 0 mm 3 mps 693 mmHg 95%
    08:00 -18°C° 0 mm 3 mps 694 mmHg 94%
    09:00 -17°C° 0 mm 3 mps 694 mmHg 92%
    10:00 -16°C° 0 mm 3 mps 695 mmHg 90%
    11:00 -15°C° 0 mm 3 mps 695 mmHg 89%
    12:00 -14°C° 0 mm 3 mps 695 mmHg 87%
    13:00 -12°C° 0 mm 2 mps 695 mmHg 86%
    14:00 -12°C° 0 mm 2 mps 695 mmHg 86%
    15:00 -12°C° 0 mm 2 mps 695 mmHg 86%
    16:00 -12°C° 0 mm 2 mps 695 mmHg 86%
    17:00 -13°C° 0 mm 2 mps 695 mmHg 88%
    18:00 -14°C° 0 mm 2 mps 696 mmHg 90%
    19:00 -14°C° 0 mm 1 mps 696 mmHg 93%
    20:00 -17°C° 0 mm 2 mps 696 mmHg 94%
    21:00 -19°C° 0 mm 2 mps 696 mmHg 95%
    22:00 -20°C° 0 mm 2 mps 696 mmHg 96%
    23:00 -19°C° 0 mm 1 mps 696 mmHg 97%

    28 February, Wednesday

    Time Temperature Precipitation Wind Pressure Humidity
    00:00 -20°C° 0 mm 1 mps 696 mmHg 97%
    01:00 -21°C° 0 mm 1 mps 696 mmHg 98%
    02:00 -21°C° 0 mm 1 mps 697 mmHg 98%
    03:00 -21°C° 0 mm 1 mps 697 mmHg 98%
    04:00 -22°C° 0 mm 1 mps 697 mmHg 98%
    05:00 -22°C° 0 mm 1 mps 698 mmHg 98%
    06:00 -22°C° 0 mm 1 mps 698 mmHg 98%
    07:00 -22°C° 0 mm 1 mps 698 mmHg 97%
    08:00 -20°C° 0 mm 1 mps 699 mmHg 93%
    09:00 -17°C° 0 mm 1 mps 699 mmHg 89%
    10:00 -14°C° 0 mm 1 mps 700 mmHg 86%
    11:00 -13°C° 0 mm 1 mps 700 mmHg 83%
    12:00 -11°C° 0 mm 1 mps 700 mmHg 80%
    13:00 -10°C° 0 mm 1 mps 700 mmHg 77%
    14:00 -10°C° 0 mm 1 mps 700 mmHg 80%
    15:00 -10°C° 0 mm 1 mps 701 mmHg 82%
    16:00 -12°C° 0 mm 2 mps 701 mmHg 84%
    17:00 -14°C° 0 mm 2 mps 701 mmHg 86%
    18:00 -16°C° 0 mm 2 mps 701 mmHg 89%
    19:00 -18°C° 0 mm 2 mps 701 mmHg 92%
    20:00 -19°C° 0 mm 2 mps 701 mmHg 93%
    21:00 -20°C° 0 mm 2 mps 701 mmHg 94%
    22:00 -21°C° 0 mm 2 mps 701 mmHg 95%
    23:00 -21°C° 0 mm 2 mps 701 mmHg 95%
    Show more